Location: Donald C. Martin Observatory
(38.3885°N, 82.3916°W)
Time: 05:12:11
(UTC-04:00)

Cosmos 1484 Rocket - Visible Passes

Search period start: 30 August 2016 00:00
Search period end: 09 September 2016 00:00
Orbit: 507 x 564 km, 97.4° (Epoch: 29 August)

Date Brightness Start Highest point End Pass type
(mag) Time Alt. Az. Time Alt. Az. Time Alt. Az.
30 Aug 5.9 20:51:03 10° WSW 20:52:55 13° W 20:54:47 10° WNW visible
31 Aug 5.7 20:41:47 10° SW 20:44:16 17° W 20:46:45 10° NW visible
01 Sep 5.5 20:32:43 10° SSW 20:35:38 21° W 20:38:33 10° NW visible
02 Sep 5.1 20:23:48 10° SSW 20:26:59 27° W 20:30:13 10° NW visible
